McCall, ID

10:04 AM MDT on April 21, 2018 (GMT -0600)
McCall

Weather History for KMYL - October, 2012

Change the Weather History Date:

Saturday, October 13, 2012

  Actual Average Record
Temperature  
Mean Temperature 48 °F 41 °F  
Max Temperature 57 °F 57 °F 76 °F (1991)
Min Temperature 39 °F 25 °F 14 °F (2002)
Degree Days  
Heating Degree Days 17 24  
Month to date heating degree days 259 290  
Since 1 July heating degree days 583 1055  
Cooling Degree Days 0 0  
Month to date cooling degree days 0 0  
Year to date cooling degree days 172 25  
Moisture  
Dew Point 39 °F    
Average Humidity 66    
Maximum Humidity 96    
Minimum Humidity 36    
Precipitation  
Precipitation 0.09 in 0.04 in 0.70 in (1962)
Month to date precipitation 0.09 0.44  
Year to date precipitation 18.40 14.36  
Sea Level Pressure  
Sea Level Pressure 30.14 in    
Wind  
Wind Speed 3 mph (West)    
Max Wind Speed 13 mph    
Max Gust Speed 16 mph    
Visibility 10 miles    
Events Rain    
T = Trace of Precipitation, MM = Missing Value Source: NWS Daily Summary

Daily Weather History Graph

Daily Weather History Graph

Search for Another Location

Airport or City:

Astronomy

Oct. 13, 2012 Rise Set
Actual Time 7:58 AM MDT 7:02 PM MDT
Civil Twilight 7:28 AM MDT 7:31 PM MDT
Nautical Twilight 6:54 AM MDT 8:05 PM MDT
Astronomical Twilight 6:20 AM MDT 8:39 PM MDT
Moon 5:49 AM MDT (10/13) 5:50 PM MDT (10/13)
Length of Visible Light 12h 02m
Length of Day
11h 03m
Waning Crescent, 4% of the Moon is Illuminated
Oct 13
Waning Crescent
Oct 15
New
Oct 21
First Quarter
Oct 29
Full
Nov 6
Last Quarter

Hourly Weather History & Observations

Time (MDT) Temp. Windchill Dew Point Humidity Pressure Visibility Wind Dir Wind Speed Gust Speed Precip Events Conditions
1:51 AM 50.0 °F - 25.0 °F 38% 29.90 in 10.0 mi Calm Calm - N/A   Overcast
2:51 AM 48.9 °F - 30.9 °F 50% 29.92 in 10.0 mi Calm Calm - 0.00 in Rain Light Rain
3:51 AM 46.9 °F - 34.0 °F 61% 29.96 in 10.0 mi WNW 5.8 mph - 0.00 in Rain Light Rain
5:51 AM 43.0 °F - 41.0 °F 93% 30.03 in 10.0 mi Calm Calm - 0.06 in Rain Light Rain
6:51 AM 42.1 °F - 39.9 °F 92% 30.05 in 10.0 mi Calm Calm - 0.00 in   Mostly Cloudy
7:51 AM 43.0 °F - 39.9 °F 89% 30.09 in 10.0 mi Calm Calm - N/A   Overcast
8:04 AM 42.8 °F - 39.2 °F 87% 30.15 in 10.0 mi Calm Calm - N/A   Overcast
9:51 AM 46.0 °F - 41.0 °F 83% 30.15 in 10.0 mi Calm Calm - N/A   Mostly Cloudy
10:51 AM 50.0 °F - 43.0 °F 77% 30.17 in 10.0 mi Calm Calm - N/A   Scattered Clouds
11:31 AM 50.0 °F - 42.8 °F 76% 30.22 in 10.0 mi West 6.9 mph - N/A   Overcast
11:40 AM 51.8 °F - 42.8 °F 71% 30.22 in 10.0 mi WSW 5.8 mph - N/A   Overcast
12:51 PM 55.9 °F - 39.9 °F 55% 30.18 in 10.0 mi WNW 12.7 mph - N/A   Mostly Cloudy
1:51 PM 54.0 °F - 41.0 °F 62% 30.18 in 10.0 mi West 6.9 mph - N/A   Mostly Cloudy
2:51 PM 55.9 °F - 39.0 °F 53% 30.17 in 10.0 mi SSW 8.1 mph - N/A   Overcast
3:51 PM 55.0 °F - 39.0 °F 55% 30.20 in 10.0 mi WSW 6.9 mph - N/A   Overcast
4:51 PM 54.0 °F - 39.0 °F 57% 30.21 in 10.0 mi West 6.9 mph - N/A   Overcast
5:51 PM 54.0 °F - 43.0 °F 66% 30.22 in 10.0 mi WNW 3.5 mph - 0.01 in   Overcast
6:51 PM 52.0 °F - 39.0 °F 61% 30.25 in 10.0 mi NW 3.5 mph - N/A   Scattered Clouds
8:51 PM 44.1 °F - 39.9 °F 85% 30.28 in 10.0 mi Calm Calm - N/A   Scattered Clouds
11:51 PM 41.0 °F 39.0 °F 39.0 °F 93% 30.28 in 10.0 mi East 3.5 mph - N/A   Mostly Cloudy